Temp
52 52 52 51 50 50 50 49 49 48 45 45 47 45 47 44 44 46 43 44 44 45 45 46 46 47 47 48 48 49 49 49 48 48 49 49 49 49 49 49 49 49
50 50 49 49 48 48 48 49 49 48 45 45 45 45 43 44 43 44 44 44 44 44 45 45 45 45 45 46 45 45 45 47 47 48 48 48 47 48 47 48 48 48
49 48 49 49 49 48 47 46 46 45 45 43 43 43 44 42 43 42 42 42 43 42 43 43 43 43 43 43 43 44 45 46 46 47 46 47 47 46 47 47 47 47
47 46 47 46 46 45 45 45 43 43 43 43 42 42 42 41 41 41 40 40 41 41 41 41 41 41 41 40 41 40 41 42 42 42 43 44 44 43 44 44 44 44
45 44 44 44 43 43 44 43 43 42 42 41 41 40 41 40 40 38 37 36 37 37 38 38 38 38 38 38 38 38 37 39 41 41 40 41 42 42 42 41 40 40
42 43 43 43 42 43 42 42 41 41 40 40 39 39 38 38 36 36 35 36 34 35 34 34 34 33 34 34 34 35 33 34 35 36 37 38 38 38 39 38 36 35
41 42 41 41 41 41 41 40 39 39 39 38 36 36 35 35 35 34 34 34 34 33 33 34 34 33 32 32 33 33 32 33 33 34 35 35 35 34 35 35 34 35
40 40 40 40 39 39 38 37 36 36 35 35 35 32 34 34 35 33 33 34 34 34 33 33 34 35 31 31 32 32 32 33 32 32 32 33 32 33 32 32 33 35
38 37 37 37 37 36 36 35 34 34 33 35 34 33 32 32 33 33 33 33 33 32 33 33 33 32 30 31 32 32 32 31 30 32 32 33 33 33 33 32 32 32
36 35 36 35 35 35 34 33 33 33 33 34 32 33 33 32 33 33 33 33 33 33 33 33 33 32 32 30 31 32 32 32 31 31 31 31 31 32 32 32 32 32
34 34 35 34 34 33 33 33 33 33 33 32 33 33 32 33 33 32 33 33 33 33 33 33 32 32 32 32 31 29 31 31 31 31 31 31 31 31 32 31 32 32
34 34 34 34 33 33 33 33 33 33 32 32 32 33 32 32 32 32 32 33 32 32 31 32 31 31 31 32 32 31 30 30 30 30 31 31 32 32 32 31 32 32
34 33 33 33 33 33 32 33 32 32 32 32 31 32 32 32 32 32 31 31 31 31 32 32 32 32 31 30 31 31 31 32 31 31 32 31 32 32 32 32 32 32
32 32 33 32 32 32 32 32 31 31 31 30 31 32 32 31 31 31 30 30 30 30 31 30 30 31 30 31 31 30 31 31 31 31 31 31 31 32 32 32 32 32
32 32 32 32 32 32 32 31 31 30 30 31 31 31 32 30 30 31 31 31 30 30 31 31 32 32 31 32 33 32 30 31 32 31 31 31 31 31 31 31 31 31
32 32 31 31 31 31 30 30 30 30 30 30 30 30 30 30 29 29 29 29 30 30 30 32 32 32 34 38 39 35 32 31 31 30 31 30 30 30 30 31 31 31
32 31 31 31 30 30 29 30 29 29 29 29 29 29 29 28 29 29 29 29 29 29 29 31 31 32 37 39 40 40 34 31 30 30 30 30 29 29 29 29 30 29
31 30 30 29 29 29 28 28 28 28 28 28 28 28 27 28 29 28 28 28 29 28 28 30 30 35 38 38 39 39 39 33 30 30 29 29 29 28 28 28 29 29
30 30 29 28 28 27 27 27 27 27 26 27 26 26 27 28 27 28 28 28 28 28 28 29 28 34 37 38 38 39 39 36 31 29 29 28 28 28 27 28 28 29
29 29 28 27 27 27 27 26 26 25 24 24 24 26 26 27 26 26 27 27 27 27 27 28 28 33 37 37 37 38 38 36 28 28 28 27 27 27 28 28 28 28
28 28 27 27 26 26 25 25 25 24 25 24 25 25 25 25 24 24 26 25 26 27 27 27 29 34 36 36 36 37 37 34 28 28 27 26 27 27 27 27 28 29
28 27 27 26 26 25 25 24 24 24 24 24 24 24 24 24 24 24 24 24 24 23 24 26 28 33 34 35 36 36 35 28 27 27 26 26 26 26 26 27 27 28
27 27 26 25 24 24 24 23 23 23 23 22 23 23 23 24 26 24 23 23 23 23 25 27 27 30 33 34 34 35 32 26 26 25 25 25 25 26 26 27 27 28
26 26 25 24 23 23 23 23 22 21 21 21 22 22 23 25 26 25 25 22 22 24 26 25 23 26 32 33 33 33 32 26 24 24 23 24 25 26 26 26 27 28
25 25 24 23 22 21 21 21 19 19 20 20 21 22 24 24 24 23 22 22 23 24 25 22 19 24 29 31 32 32 30 24 23 22 22 23 24 25 26 26 26 27
24 23 22 21 21 20 19 20 19 19 20 20 22 22 22 22 20 21 20 21 20 17 18 19 20 20 24 30 31 31 32 26 22 22 23 24 25 25 24 25 25 25
MSLP
1021.25 1021.41 1021.65 1021.89 1022.17 1022.33 1022.53 1022.65 1022.93 1023.13 1023.49 1023.65 1023.73 1024.13 1024.09 1024.41 1024.53 1024.53 1024.61 1024.61 1024.65 1024.65 1024.69 1024.69 1024.69 1024.69 1024.73 1024.77 1024.85 1024.85 1025.01 1025.09 1025.17 1025.21 1025.29 1025.33 1025.37 1025.33 1025.29 1025.37 1025.33 1025.33
1021.33 1021.57 1021.89 1022.17 1022.49 1022.73 1022.81 1022.77 1023.09 1023.37 1023.81 1024.01 1024.21 1024.37 1024.65 1024.65 1024.81 1024.73 1024.69 1024.77 1024.81 1024.89 1024.89 1024.89 1024.93 1024.97 1024.97 1024.93 1024.97 1025.01 1025.09 1025.17 1025.25 1025.29 1025.37 1025.41 1025.49 1025.49 1025.53 1025.49 1025.49 1025.45
1021.45 1021.65 1021.77 1021.89 1022.25 1022.61 1023.01 1023.41 1023.57 1023.85 1024.01 1024.37 1024.53 1024.61 1024.73 1024.93 1024.89 1025.05 1025.13 1025.05 1025.05 1025.13 1025.13 1025.13 1025.13 1025.21 1025.21 1025.21 1025.21 1025.29 1025.49 1025.61 1025.69 1025.65 1025.57 1025.61 1025.65 1025.73 1025.65 1025.69 1025.61 1025.57
1021.69 1021.89 1022.13 1022.49 1022.69 1023.09 1023.49 1023.61 1024.01 1024.21 1024.33 1024.41 1024.69 1024.93 1024.97 1025.13 1025.21 1025.25 1025.37 1025.41 1025.41 1025.45 1025.45 1025.37 1025.37 1025.41 1025.41 1025.49 1025.53 1025.69 1025.89 1025.97 1026.05 1026.01 1026.05 1026.01 1026.05 1026.09 1026.05 1026.01 1025.97 1025.93
1022.13 1022.49 1022.81 1023.05 1023.37 1023.57 1023.61 1023.77 1024.09 1024.33 1024.49 1024.85 1024.97 1025.09 1025.09 1025.21 1025.33 1025.49 1025.57 1025.61 1025.61 1025.61 1025.57 1025.53 1025.53 1025.53 1025.57 1025.61 1025.73 1025.81 1025.97 1026.09 1026.13 1026.09 1026.17 1026.21 1026.21 1026.13 1026.05 1026.05 1026.09 1026.05
1022.81 1023.01 1023.17 1023.29 1023.49 1023.53 1023.89 1024.17 1024.45 1024.57 1024.81 1024.89 1025.17 1025.29 1025.37 1025.41 1025.45 1025.49 1025.57 1025.61 1025.77 1025.81 1025.77 1025.81 1025.77 1025.81 1025.77 1025.77 1025.77 1025.81 1025.85 1025.85 1025.93 1026.05 1026.21 1026.33 1026.37 1026.21 1026.09 1026.05 1026.01 1025.97
1023.05 1023.13 1023.41 1023.65 1023.93 1024.13 1024.37 1024.69 1024.89 1025.01 1025.09 1025.29 1025.33 1025.37 1025.33 1025.33 1025.41 1025.57 1025.65 1025.73 1025.81 1025.93 1025.97 1025.97 1025.93 1025.89 1025.89 1025.73 1025.65 1025.69 1025.85 1025.93 1025.97 1025.97 1025.93 1026.01 1026.05 1026.05 1026.05 1025.97 1025.89 1025.89
1023.41 1023.69 1023.93 1024.13 1024.33 1024.65 1024.81 1025.09 1025.25 1025.33 1025.45 1025.41 1025.33 1025.65 1025.53 1025.53 1025.57 1025.73 1025.77 1025.77 1025.77 1025.89 1025.97 1026.01 1025.97 1025.93 1025.93 1025.77 1025.69 1025.73 1025.77 1025.97 1025.97 1025.93 1025.93 1025.89 1026.01 1025.85 1025.93 1025.93 1025.93 1025.93
1023.81 1024.05 1024.29 1024.49 1024.77 1025.09 1025.25 1025.41 1025.53 1025.61 1025.61 1025.49 1025.65 1025.81 1025.93 1025.85 1025.85 1025.85 1025.89 1025.89 1025.89 1025.93 1025.97 1025.97 1026.05 1026.05 1026.09 1025.93 1025.89 1025.89 1025.93 1026.01 1026.13 1026.13 1026.05 1025.97 1025.89 1025.85 1025.93 1025.97 1025.89 1025.81
1024.09 1024.41 1024.61 1024.89 1025.09 1025.41 1025.41 1025.53 1025.57 1025.65 1025.73 1025.77 1025.93 1026.01 1025.93 1026.09 1026.05 1026.05 1026.01 1026.01 1025.97 1026.05 1026.09 1026.13 1026.17 1026.21 1026.13 1026.13 1026.05 1026.09 1026.05 1026.09 1026.13 1026.17 1026.21 1026.17 1026.13 1026.05 1025.97 1025.97 1025.89 1025.73
1024.41 1024.69 1024.85 1025.09 1025.25 1025.41 1025.41 1025.53 1025.61 1025.77 1025.89 1025.89 1025.93 1025.89 1025.97 1025.97 1026.13 1026.29 1026.17 1026.17 1026.21 1026.33 1026.33 1026.41 1026.53 1026.49 1026.37 1026.25 1026.21 1026.25 1026.25 1026.21 1026.17 1026.17 1026.17 1026.17 1026.17 1026.09 1026.05 1026.01 1025.89 1025.77
1024.65 1024.81 1024.93 1025.05 1025.21 1025.37 1025.53 1025.65 1025.77 1025.85 1025.93 1026.05 1025.93 1025.81 1026.01 1026.13 1026.13 1026.29 1026.29 1026.33 1026.49 1026.61 1026.73 1026.81 1026.85 1026.85 1026.69 1026.53 1026.41 1026.37 1026.37 1026.33 1026.33 1026.25 1026.17 1026.13 1026.05 1026.01 1025.97 1025.93 1025.89 1025.73
1024.69 1024.85 1025.01 1025.09 1025.25 1025.49 1025.69 1025.77 1025.85 1025.97 1025.89 1025.93 1026.09 1026.01 1025.97 1026.01 1026.21 1026.21 1026.53 1026.57 1026.65 1026.77 1026.85 1027.01 1027.05 1027.05 1026.93 1026.77 1026.61 1026.49 1026.37 1026.29 1026.25 1026.21 1026.13 1026.13 1026.05 1025.97 1025.89 1025.85 1025.81 1025.73
1024.81 1025.01 1025.09 1025.25 1025.41 1025.57 1025.65 1025.81 1025.89 1025.93 1026.01 1026.17 1026.13 1026.01 1026.09 1026.25 1026.33 1026.45 1026.69 1026.77 1026.89 1026.93 1027.05 1027.17 1027.21 1027.17 1027.09 1026.93 1026.77 1026.61 1026.45 1026.33 1026.33 1026.25 1026.17 1026.05 1025.93 1025.85 1025.81 1025.73 1025.69 1025.65
1024.89 1025.09 1025.21 1025.29 1025.41 1025.57 1025.69 1025.81 1025.93 1026.05 1026.17 1026.21 1026.17 1026.25 1026.41 1026.53 1026.69 1026.77 1026.73 1026.77 1027.01 1027.13 1027.17 1027.29 1027.33 1027.33 1027.25 1027.05 1026.77 1026.57 1026.45 1026.37 1026.29 1026.25 1026.17 1026.05 1025.93 1025.85 1025.77 1025.61 1025.53 1025.53
1024.85 1025.05 1025.17 1025.29 1025.45 1025.61 1025.85 1025.97 1026.09 1026.21 1026.21 1026.17 1026.25 1026.45 1026.61 1026.81 1026.89 1027.05 1027.13 1027.17 1027.09 1027.21 1027.41 1027.45 1027.53 1027.49 1027.29 1026.93 1026.69 1026.57 1026.41 1026.29 1026.21 1026.17 1026.13 1026.05 1025.93 1025.77 1025.65 1025.53 1025.41 1025.33
1024.81 1024.97 1025.17 1025.37 1025.73 1025.93 1026.05 1026.05 1026.17 1026.25 1026.21 1026.29 1026.49 1026.69 1026.89 1027.09 1027.13 1027.09 1027.25 1027.37 1027.45 1027.57 1027.61 1027.73 1027.73 1027.57 1027.17 1026.85 1026.61 1026.45 1026.33 1026.29 1026.21 1026.17 1026.17 1026.05 1025.93 1025.85 1025.61 1025.37 1025.21 1025.21
1024.77 1025.05 1025.29 1025.69 1025.89 1025.97 1026.09 1026.25 1026.25 1026.25 1026.37 1026.57 1026.73 1026.89 1027.21 1027.29 1027.21 1027.37 1027.41 1027.49 1027.65 1027.81 1027.77 1027.73 1027.65 1027.37 1027.05 1026.77 1026.57 1026.41 1026.25 1026.13 1026.13 1026.17 1026.17 1026.05 1025.93 1025.77 1025.61 1025.41 1025.13 1024.93
1024.97 1025.17 1025.49 1025.77 1026.01 1026.13 1026.21 1026.25 1026.29 1026.41 1026.61 1026.73 1026.97 1027.37 1027.37 1027.33 1027.61 1027.53 1027.61 1027.77 1027.85 1027.93 1027.85 1027.85 1027.73 1027.41 1027.05 1026.77 1026.61 1026.41 1026.21 1026.09 1026.17 1026.21 1026.13 1026.01 1025.85 1025.69 1025.53 1025.37 1025.13 1024.81
1025.21 1025.37 1025.57 1025.89 1026.09 1026.17 1026.25 1026.37 1026.49 1026.77 1027.13 1027.33 1027.33 1027.41 1027.37 1027.53 1027.69 1027.81 1027.97 1028.01 1028.05 1028.13 1028.09 1027.97 1027.77 1027.45 1027.13 1026.89 1026.69 1026.45 1026.21 1026.21 1026.29 1026.21 1026.13 1025.97 1025.81 1025.65 1025.53 1025.37 1025.13 1024.93
1025.41 1025.57 1025.69 1025.97 1026.13 1026.25 1026.37 1026.57 1026.85 1027.05 1027.17 1027.45 1027.49 1027.53 1027.57 1027.77 1028.05 1028.13 1028.17 1028.17 1028.21 1028.25 1028.21 1027.97 1027.81 1027.53 1027.25 1027.05 1026.77 1026.45 1026.25 1026.33 1026.33 1026.25 1026.09 1025.97 1025.85 1025.69 1025.57 1025.37 1025.17 1024.93
1025.33 1025.57 1025.81 1026.01 1026.17 1026.33 1026.45 1026.73 1027.01 1027.21 1027.29 1027.53 1027.57 1027.73 1027.97 1028.09 1028.21 1028.33 1028.33 1028.29 1028.37 1028.41 1028.33 1028.09 1027.89 1027.69 1027.45 1027.17 1026.89 1026.53 1026.41 1026.49 1026.33 1026.17 1026.01 1025.89 1025.81 1025.69 1025.57 1025.45 1025.25 1025.05
1025.33 1025.49 1025.77 1026.05 1026.29 1026.29 1026.53 1026.81 1027.01 1027.29 1027.57 1027.77 1027.65 1027.89 1028.01 1028.21 1028.37 1028.41 1028.45 1028.41 1028.37 1028.41 1028.41 1028.25 1028.09 1027.89 1027.53 1027.21 1026.93 1026.61 1026.49 1026.49 1026.33 1026.17 1026.05 1025.85 1025.77 1025.65 1025.57 1025.53 1025.45 1025.21
1025.45 1025.57 1025.81 1026.21 1026.33 1026.37 1026.73 1027.13 1027.41 1027.57 1027.69 1027.93 1027.81 1027.89 1028.01 1028.25 1028.41 1028.41 1028.53 1028.61 1028.61 1028.49 1028.41 1028.45 1028.41 1028.17 1027.73 1027.33 1026.97 1026.65 1026.53 1026.57 1026.53 1026.41 1026.25 1025.97 1025.57 1025.45 1025.45 1025.37 1025.29 1025.13
1025.65 1025.81 1026.05 1026.29 1026.45 1026.81 1026.97 1027.09 1027.29 1027.49 1027.73 1027.89 1028.01 1028.17 1028.29 1028.41 1028.49 1028.65 1028.77 1028.81 1028.73 1028.69 1028.69 1028.73 1028.73 1028.41 1027.89 1027.45 1027.13 1026.89 1026.69 1026.77 1026.73 1026.61 1026.29 1025.93 1025.49 1024.97 1024.77 1024.97 1025.01 1024.97
1025.81 1025.97 1026.25 1026.41 1026.61 1026.93 1027.17 1027.25 1027.45 1027.57 1027.65 1027.81 1028.09 1028.33 1028.49 1028.57 1028.73 1028.81 1028.89 1028.93 1028.93 1029.01 1029.01 1028.97 1028.81 1028.53 1028.13 1027.73 1027.45 1027.17 1026.89 1026.85 1026.81 1026.57 1026.13 1025.69 1025.41 1025.29 1024.77 1024.25 1024.37 1024.49
Wind_Speed
6 6 7 6 5 6 6 6 5 6 4 4 5 3 5 3 2 4 4 4 4 4 4 4 4 4 4 4 3 4 4 4 4 4 6 6 5 7 6 8 7 7
6 7 6 6 5 5 4 5 6 6 5 5 5 5 3 4 3 4 4 4 5 5 4 5 5 5 4 4 4 4 5 5 4 3 4 4 4 4 5 5 5 5
6 6 6 6 7 7 7 6 6 6 6 5 4 4 5 4 5 4 4 4 5 5 5 5 5 5 5 5 5 5 5 6 6 6 5 5 6 5 6 6 5 6
6 6 6 6 7 7 6 7 6 5 5 6 5 4 5 4 5 5 5 4 5 4 4 5 5 5 5 4 5 5 4 5 4 4 4 4 4 4 4 4 3 3
6 6 6 7 6 6 7 8 6 6 7 5 5 4 6 5 5 5 5 4 5 5 5 5 4 5 4 5 4 5 4 4 3 3 3 3 3 3 3 3 2 2
6 6 6 6 6 7 7 7 5 6 6 6 5 4 5 4 5 5 5 5 4 4 4 4 4 3 4 4 4 4 3 4 3 3 3 2 1 1 1 2 3 3
7 7 7 7 7 7 8 6 5 5 5 5 4 5 4 6 5 5 4 5 4 4 4 4 4 4 3 4 4 4 3 3 2 2 2 1 1 2 2 2 3 4
7 6 7 7 8 7 7 6 5 5 4 5 6 4 4 5 5 4 4 4 5 4 4 4 4 4 3 4 4 4 4 2 3 3 3 4 3 4 4 4 3 5
7 7 7 8 8 6 7 6 5 5 4 6 6 5 4 4 4 4 4 4 5 4 4 4 4 4 3 4 3 3 3 3 2 3 4 4 5 5 5 4 4 4
8 7 8 7 8 6 7 5 5 5 4 6 4 5 6 4 4 4 5 5 5 5 5 4 4 4 4 3 3 2 2 3 3 3 3 3 4 5 5 4 5 6
8 7 8 7 7 6 6 6 6 6 4 4 5 6 5 6 6 4 5 6 6 5 5 5 4 3 4 4 4 3 3 3 4 3 4 3 3 4 5 4 5 5
8 7 8 8 7 7 6 6 5 5 5 4 4 6 5 5 5 5 6 5 5 4 4 4 4 4 3 3 4 4 3 3 3 3 4 4 5 5 4 4 5 6
7 7 7 7 7 7 6 5 5 4 5 5 4 5 6 6 5 6 5 4 4 4 4 4 4 4 4 4 4 4 4 4 4 4 5 4 4 5 5 5 5 6
7 6 7 7 6 6 6 5 5 5 5 4 4 7 6 6 6 5 4 4 4 4 4 4 4 4 4 4 4 4 4 5 4 4 5 5 5 6 5 5 6 6
7 6 6 6 6 6 6 6 5 5 4 5 6 6 6 5 5 5 5 5 4 4 4 4 4 4 4 4 5 5 4 4 4 4 5 6 6 6 6 6 6 5
7 6 6 6 7 6 5 5 5 4 5 6 6 6 6 5 5 4 4 4 5 5 5 5 4 3 6 11 8 6 5 4 5 5 5 5 6 7 6 6 6 6
7 7 7 7 5 5 5 5 5 5 6 6 6 6 6 5 4 5 5 4 4 4 4 4 4 4 11 10 11 11 5 4 4 5 4 5 5 6 7 8 7 5
7 7 7 6 5 5 5 5 5 6 6 6 6 6 5 4 6 5 5 5 5 4 4 4 4 8 12 12 12 13 10 5 4 4 4 4 5 5 6 6 8 8
7 8 7 6 5 5 5 6 6 6 6 5 5 3 4 6 5 5 5 5 4 4 5 4 4 9 13 13 14 14 14 9 5 4 5 5 5 5 6 6 7 9
7 7 8 6 5 6 6 6 6 6 4 4 3 4 5 5 5 5 4 4 4 4 4 4 4 8 13 14 14 14 14 11 4 5 4 5 5 6 6 6 7 8
7 7 8 6 6 6 6 6 5 4 5 4 4 4 5 4 3 3 3 3 4 4 4 5 5 11 13 14 14 14 15 10 5 5 4 4 5 5 5 6 7 7
8 8 7 7 7 6 6 6 5 5 5 3 4 4 4 3 3 2 2 3 3 3 3 5 5 11 13 13 14 15 14 6 6 6 6 6 5 5 5 5 5 7
7 8 8 7 5 6 6 5 5 4 4 2 4 3 3 3 2 2 2 3 4 3 3 5 5 10 13 14 14 16 10 6 6 6 7 7 6 5 5 5 5 7
6 7 8 7 6 7 6 4 3 3 3 2 4 3 3 3 3 3 3 3 3 4 4 4 5 8 13 14 15 16 12 7 7 7 7 7 8 6 5 6 6 10
7 7 7 7 7 6 5 5 4 3 2 3 3 3 3 3 3 3 2 3 3 4 6 4 4 6 12 14 15 16 11 5 7 7 8 8 9 11 9 6 5 7
6 7 7 7 7 6 5 4 3 3 4 3 4 4 3 3 3 2 2 3 4 3 3 3 3 5 7 14 13 14 15 8 5 7 10 11 10 9 11 12 8 6
Wind_Direction
119 120 125 120 126 135 141 125 114 107 106 107 108 102 90 77 58 82 86 69 67 63 49 47 45 52 59 63 63 61 56 49 47 36 31 23 18 9 11 10 8 7
110 112 114 114 110 105 92 99 109 111 102 92 96 97 79 90 53 71 71 71 61 60 55 56 54 51 43 43 40 58 47 46 40 34 45 39 28 20 10 7 3 351
109 105 113 117 112 97 92 83 92 93 98 96 91 82 87 70 74 57 59 69 70 58 57 59 60 51 51 48 51 52 49 46 36 20 33 24 22 18 7 9 358 0
82 94 102 99 102 105 104 97 84 88 90 77 65 65 75 69 69 62 55 53 68 62 62 64 67 61 59 58 66 63 60 59 43 43 52 36 37 15 14 357 357 329
102 95 93 95 97 101 96 94 93 89 84 90 76 63 74 70 70 68 66 57 62 58 54 58 56 58 62 67 76 84 76 78 62 58 59 52 29 1 352 353 337 317
84 93 94 98 96 97 91 92 97 97 99 86 93 86 87 86 83 78 69 69 56 62 58 53 63 57 75 85 83 84 91 76 71 81 75 57 20 315 322 321 317 313
100 94 88 88 87 89 94 92 93 96 96 116 100 81 95 85 85 85 85 86 80 69 66 58 63 56 49 76 68 61 45 73 47 68 59 354 299 313 302 303 309 310
93 90 93 91 91 87 92 93 94 99 116 97 90 81 86 94 90 91 91 88 83 74 65 49 41 45 32 63 64 52 26 18 18 4 358 330 341 322 319 313 308 307
98 94 94 94 95 94 98 98 97 89 83 92 89 86 66 80 92 88 86 86 78 67 57 49 35 33 29 54 58 65 39 356 357 11 345 337 336 324 320 318 321 305
99 102 98 103 102 107 104 98 92 85 80 89 92 88 83 64 66 68 66 65 67 51 47 38 27 12 13 31 47 61 35 352 347 352 332 317 307 310 314 321 312 313
108 110 111 109 109 105 97 94 89 91 81 92 98 82 72 73 59 56 61 53 49 40 29 23 10 6 10 4 4 22 24 351 340 335 324 309 296 292 297 299 301 292
117 115 114 113 109 101 99 97 96 92 96 77 84 90 78 70 72 54 58 51 43 30 24 8 356 354 0 360 358 357 1 343 325 322 317 315 311 304 297 292 286 291
120 119 117 114 110 110 107 98 93 93 85 82 75 84 77 65 53 57 37 48 32 28 21 2 352 347 356 3 2 358 354 348 338 332 321 313 301 297 297 294 289 290
119 120 115 114 112 106 103 100 95 85 81 80 77 67 63 57 50 46 27 40 25 20 2 3 354 356 357 0 355 348 343 333 328 321 317 312 308 306 303 298 293 291
123 116 112 108 105 102 97 93 88 87 85 78 70 66 56 50 45 41 32 22 17 23 7 1 5 350 351 345 343 339 336 327 319 316 311 309 308 306 302 299 295 288
120 114 109 103 98 98 99 95 89 83 78 69 61 57 53 42 40 37 43 30 13 7 8 0 353 340 336 344 350 347 335 328 322 315 312 307 309 308 303 298 296 301
118 112 106 100 103 102 97 93 86 83 72 65 58 52 48 38 43 38 28 20 19 9 357 351 338 331 339 346 345 346 341 325 315 308 304 304 302 303 307 310 308 301
118 114 106 107 103 100 97 91 85 75 68 65 60 48 38 47 44 32 24 15 12 6 354 345 339 332 342 345 347 344 344 338 327 319 312 309 302 307 307 309 314 317
119 116 113 109 104 102 97 86 81 74 65 57 53 50 55 54 40 34 20 4 6 2 347 339 336 327 344 346 348 349 352 358 340 330 325 315 318 317 318 320 320 320
123 120 114 111 107 96 91 85 79 77 74 67 64 51 54 49 39 31 14 3 354 349 336 325 333 330 347 350 352 351 355 360 333 333 326 320 324 323 324 326 322 323
125 120 115 111 102 97 91 83 82 79 66 55 61 57 52 46 37 24 358 356 345 345 339 333 326 339 352 354 353 354 358 357 334 333 332 331 327 324 322 321 320 317
131 124 116 112 106 99 94 89 83 78 70 52 58 53 52 53 23 41 16 348 336 342 344 336 333 343 354 356 357 357 359 348 344 341 341 336 332 330 324 322 321 328
133 125 119 113 113 104 96 92 87 76 70 66 67 60 61 50 44 21 353 351 341 346 350 345 342 339 354 358 0 358 0 351 347 345 337 333 332 330 330 334 338 337
127 124 121 119 111 107 106 101 96 95 91 75 85 63 47 36 26 19 4 354 338 345 354 354 338 333 353 359 1 0 3 357 344 341 330 329 326 325 331 330 330 333
121 117 116 117 110 110 111 104 101 100 93 80 78 78 62 46 23 28 359 350 352 351 342 344 330 335 349 2 0 0 1 0 347 339 332 335 334 330 331 332 333 338
115 113 110 114 118 116 109 108 115 85 68 66 56 70 61 43 32 22 29 5 357 348 336 326 349 348 345 359 359 1 2 4 346 346 342 337 339 336 331 332 334 330